Regional Weather Roundup
Issued by NWS New Orleans/Baton Rouge, LA

Home | Current Version | Previous Version | Text Only | Print | Product List | Glossary Off
Versions: 1 2 3 4 5 6 7 8 9 10 11 12 13 14 15 16 17 18 19 20 21 22 23 24 25 26 27 28 29 30 31 32 33 34 35 36 37 38 39 40 41 42 43 44 45 46 47 48 49 50

519
ASUS44 KLIX 191510
RWRLIX
NEW ORLEANS REGIONAL WEATHER ROUNDUP
NATIONAL WEATHER SERVICE NEW ORLEANS LA
1000 AM CDT FRI SEP 19 2014

NOTE: "FAIR" INDICATES FEW OR NO CLOUDS BELOW 12,000 FEET WITH NO
      SIGNIFICANT WEATHER AND/OR OBSTRUCTIONS TO VISIBILITY.
      SKY/WX - SKY CONDITION AND SIGNIFICANT WEATHER.
      TMP - AIR TEMPERATURE.     DP    - DEWPOINT TEMPERATURE.
      RH  - RELATIVE HUMIDITY.   PRES  - PRESSURE.
      HI  - HEAT INDEX.          WCI   - WIND CHILL INDEX.

*  THESE STATIONS ARE NOT NWS OR FAA STATIONS AND ARE NOT UNDER
   NWS QUALITY CONTROL.

LAZ038-040-048-061>063-065>067-069-191600-
SOUTHEAST LOUISIANA

CITY           SKY/WX    TMP DP  RH WIND       PRES   REMARKS
N.O. AUDUBON     N/A     82  70  67 MISG        N/A
N.O. INTL ARPT PTSUNNY   82  68  62 VRB7      29.96R
N.O. LAKEFRONT MOSUNNY   81  69  67 E14       29.97R
N.O. DOWNTOWN*   N/A     81  66  61 E6        29.97R
SLIDELL        PTSUNNY   77  70  79 N6        29.97R
BATON ROUGE    MOSUNNY   80  71  74 E8        29.97S
BOOTHVILLE     CLOUDY    78  71  79 E12       29.95R
BELLE CHASSE   PTSUNNY   81  69  67 E10       29.96R
BOGALUSA*        N/A     82  69  64 SE3       30.00S
GALLIANO*      NOT AVBL
NEW ROADS*       N/A     79  71  76 E9        29.97S
GONZALES*        N/A     80  75  86 E6        29.96R
HAMMOND*       MOSUNNY   82  70  65 E6        29.99S
HOUMA*         MOSUNNY   81  61  50 E6        29.95R
PORT FOURCHON* PTSUNNY   81  73  78 E10G20    29.96S

$$

MSZ070-080>082-191600-
SOUTHERN MISSISSIPPI

CITY           SKY/WX    TMP DP  RH WIND       PRES   REMARKS
MCCOMB         SUNNY     77  68  73 E5        30.00S
GULFPORT       PTSUNNY   79  71  76 NE5       29.97R
BILOXI         NOT AVBL
PASCAGOULA     PTSUNNY   77  71  82 E3        29.98R
STENNIS ARPT*  MOSUNNY   79  70  73 CALM      29.98R

$$

COASTAL OBSERVATIONS
LAKE AND NEARSHORE STATIONS

STATION/POSITION TIME  TEMP    WIND        PRES    WAVE
                       AIR SEA DIR/SP/G            HT/PER
                 (UTC) (F)     (DEG/KT/KT) (MB)    (FT/S)
PASCAGOULA       1500   78      40/  5/  7 1014.6
WAVELAND YACHT   1500   79      80/  5/  8 1014.3
GRAND ISLE       1500   80 85  120/  7/ 13 1013.9
SOUTHWEST PASS   1500   79 90  100/ 23/ 27 1013.9
NEW CANAL        1500   81 81   70/  3/ 10 1014.9
SHELL BEACH      1500   79 78   90/  7/  9 1014.4

OFFSHORE STATIONS

STATION/POSITION TIME  TEMP    WIND        PRES    WAVE
                       AIR SEA DIR/SP/G            HT/PER
                 (UTC) (F)     (DEG/KT/KT) (MB)    (FT/S)
64 S DAUPHIN ISL 1448   76 84  110/ 19/ 23 1014.4    2/ 4

$$




USA.gov is the U.S. government's official web portal to all federal, state and local government web resources and services.